Weather in Ilek

Russia / Orenburg Oblast     51°31′38″N   53°23′22″E
temp.,
°C
wind,
m/s
gust,
m/s
humid.,
%
clouds,
%
prec.,
mm/h
press.,
hPa
HPBL,
m
7 march, sun
sun723:00−5ne3497100 0.6 1011139
02:00−5ne5896100 1.7 1009286
05:00−6nne4896100 3.0 1008362
08:00−7nne41091100 0.9 1009396
11:00−8n5881100 0.9 1011315
14:00−7nnw46772 0.0 1013365
17:00−7wnw35841 0.0 1014302
20:00−12wsw34880 0.0 101525
8 march, mon
mon823:00−14sw459316 0.0 101677
02:00−13ssw489494 0.0 1014152
05:00−8ssw8158497 0.0 1013519
08:00−7ssw91885100 0.0 1010672
11:00−4sw111885100 0.0 1009943
14:00−2sw111692100 0.3 10101008
17:00−1sw91494100 1.1 10101029
20:00−2sw71395100 0.6 1010689
9 march, tue
tue923:00−2sw81494100 1.2 1010683
02:00−2sw81594100 0.4 1009685
05:00−2sw81493100 0.9 1008573
08:00−2sw61293100 0.2 1009596
11:00−1sw6996100 0.4 1009534
14:00−1nw3498100 0.9 1009361
17:00−3ne4697100 1.6 1008316
20:00−4n5797100 2.9 1007282
10 march, wed
wed1023:00−6nnw61092100 3.8 1008456
02:00−9wnw489490 0.1 1009223
05:00−14w469592 0.2 101191
08:00−17w349638 0.0 101261
11:00−13wnw469363 0.0 1013296
14:00−11wnw579089 0.0 1015476
17:00−11wnw578994 0.1 1016604
20:00−16wnw479590 0.0 1017114
11 march, thu
thu1123:00−21wnw449749 0.0 101961
02:00−23wnw349733 0.0 101939
05:00−23wnw359862 0.1 102188
08:00−25wnw449889 0.0 102377
11:00−22wnw359376 0.1 1025238
14:00−19wnw458955 0.0 1027381
17:00−19wnw468955 0.0 1027347
20:00−23w34940 0.0 102830